Regional Weather Roundup
Issued by NWS

Home | Current Version | Previous Version | Graphics & Text | Print | Product List | Glossary Off
Versions: 1 2 3 4 5 6 7 8 9 10 11 12 13 14 15 16 17 18 19 20 21 22 23 24 25 26 27 28 29 30 31 32 33

000
ASUS45 KGTF 062010
RWRMT
MONTANA HOURLY WEATHER ROUNDUP
NATIONAL WEATHER SERVICE GREAT FALLS MT
200 PM MDT WED MAY 06 2015

NOTE: "FAIR" INDICATES FEW OR NO CLOUDS BELOW 12000 FEET WITH NO
SIGNIFICANT WEATHER AND/OR OBSTRUCTIONS TO VISIBILITY.

MTZ001>007-043-062100-
WEST OF THE DIVIDE

CITY           SKY/WX    TMP DP  RH WIND       PRES   REMARKS
KALISPELL      CLOUDY    57  20  23 VRB5      29.91F
MISSOULA       MOSUNNY   58  20  22 MISG      29.90F
BUTTE          MOSUNNY   52  23  32 VRB5      29.87F
DEER LODGE       N/A     54  21  28 E3        29.90F
EUREKA           N/A     57  21  24 CALM      29.91S
HAMILTON         N/A     57  21  24 N8        29.86F
LIBBY            N/A     55  21  26 CALM      29.93S
$$

MTZ008-052>055-062100-
SOUTHWEST MONTANA

CITY           SKY/WX    TMP DP  RH WIND       PRES   REMARKS
BOZEMAN        PTSUNNY   54  36  50 CALM      29.89F
DILLON         MOSUNNY   56  32  40 N12       29.82F
$$

MTZ009-010-012-014-046-048-049-054-062100-
EAST SLOPES AND CENTRAL MONTANA

CITY           SKY/WX    TMP DP  RH WIND       PRES   REMARKS
CUT BANK       SUNNY     52  22  30 NW10G18   29.93F
GREAT FALLS    PTSUNNY   56  26  31 N13       29.93S
MALMSTROM AFB  MOSUNNY   53  24  31 N12       29.93F
HELENA         MOSUNNY   58  26  29 N10       29.88F
$$

MTZ011-013-016-021-045-047-050-051-062100-
NORTH CENTRAL MONTANA

CITY           SKY/WX    TMP DP  RH WIND       PRES   REMARKS
HAVRE          MOSUNNY   57  34  41 NW23G31   29.91F
LEWISTOWN      CLOUDY    51  34  52 NW9       29.92S
CHINOOK          N/A     57  36  44 NW17      29.90F
FORT BENTON      N/A     55  27  33 NW10G20   29.94S
$$

MTZ017>020-022>042-056>058-061-062-062100-
EASTERN PLAINS

CITY           SKY/WX    TMP DP  RH WIND       PRES   REMARKS
BAKER          LGT RAIN  53  52  96 NW16      29.71S
BILLINGS       CLOUDY    54  34  46 N6        29.89S
GLASGOW        CLOUDY    54  41  61 NW21      29.82R
JORDAN           N/A     54  42  64 NW17G25   29.83R
LIVINGSTON     CLOUDY    52  33  48 MISG      29.88F
MILES CITY     CLOUDY    50  45  83 NW24      29.79S
SIDNEY         CLOUDY    55  52  88 NW18      29.71R
WOLF POINT     CLOUDY    59  44  57 N20       29.77R
BIG TIMBER       N/A     48  36  61 NE5       29.91S
FORSYTH          N/A     52  48  87 W12       29.83S
PLENTYWOOD       N/A     52  48  87 NW15G22   29.74R
POPLAR           N/A     55  48  76 NW17      29.76R
$$

REGIONAL REPORTS...DAKOTAS

CITY           SKY/WX    TMP DP  RH WIND       PRES   REMARKS
WILLISTON      HVY RAIN  60  56  86 W3        29.69S FOG
MINOT          CLOUDY    61  58  90 E14       29.68F FOG
DICKINSON      LGT RAIN  60  55  83 E6        29.65F
BEACH          LGT RAIN  55  55 100 NW16      29.70S
CROSBY         RAIN      54  54 100 NW18      29.72R
WATFORD CITY   CLOUDY    59  57  94 W6        29.67S FOG
BISMARCK       LGT RAIN  67  61  81 S10       29.67F
GRAND FORKS    LGT RAIN  63  60  90 SE14      29.82F FOG
FARGO          LGT RAIN  65  61  87 SE13      29.81F FOG
BUFFALO SD       N/A     60  56  86 S5        29.61F
RAPID CITY     PTSUNNY   66  53  63 VRB3      29.62F
$$

REGIONAL REPORTS...WYOMING/IDAHO/WASHINGTON

CITY           SKY/WX    TMP DP  RH WIND       PRES   REMARKS
GILLETTE       LGT RAIN  47  45  93 NW26      29.76R
SHERIDAN       CLOUDY    46  39  76 NW21G28   29.87R
BUFFALO WY     CLOUDY    46  37  71 N33G52    29.80S
CODY           CLOUDY    46  34  61 N17       29.86F
YELLOWSTONE LA   N/A     50  29  44 VRB3      29.85F
IDAHO FALLS    MOSUNNY   64  40  41 S6        29.76F
SALMON         PTSUNNY   61  27  27 NW7       29.76F
BOISE          PTSUNNY   60  26  27 NW14G24   29.83F
SPOKANE        PTSUNNY   55  28  35 CALM      29.95F
$$

REGIONAL REPORTS...ALBERTA

CITY           SKY/WX    TMP DP  RH WIND       PRES   REMARKS
EDMONTON       SNOW      32  30  93 NW18G28   30.03R VSB 1/2 WCI  20
CALGARY        PTSUNNY   45  25  45 N18G30    29.99S
LETHBRIDGE     MOSUNNY   52  28  40 NW9G20    29.97S
MEDICINE HAT   MOSUNNY   55  30  38 W18G31    29.93S
$$

REGIONAL REPORTS...SASKATCHEWAN

CITY           SKY/WX    TMP DP  RH WIND       PRES   REMARKS
SWIFT CURRENT  PTSUNNY   55  37  50 NW24G35   29.82S
REGINA         CLOUDY    50  48  93 NW17      29.76R
SASKATOON      CLOUDY    50  45  81 NW10      29.78R
$$



USA.gov is the U.S. government's official web portal to all federal, state and local government web resources and services.